FW9428 Weather Reports


Display with metric or nautical units.
time (UTC)temp
F
wind
direction
speed
MPH
gust
MPH
rain 1hr
in
rain 24hr
in
rain mn
in
humidity
%
barometer
mb
20260508033653 43 253 0.0 0.0 0.00 0.00 0.00 85 1014.9
20260508033152 43 247 0.0 0.0 0.00 0.00 0.00 84 1014.9
20260508032648 44 248 0.0 0.0 0.00 0.00 0.00 82 1014.7
20260508032146 44 249 0.0 0.0 0.00 0.00 0.00 82 1014.7
20260508031643 45 265 0.0 0.0 0.00 0.00 0.00 81 1014.9
20260508031139 46 239 0.0 0.0 0.00 0.00 0.00 79 1014.8
20260508030635 46 239 0.0 0.0 0.00 0.00 0.00 77 1014.9
20260508030133 47 250 0.0 0.0 0.00 0.00 0.00 75 1014.7
20260508025629 47 251 0.0 0.0 0.00 0.00 0.00 74 1014.7
20260508025127 48 251 0.0 0.0 0.00 0.00 0.00 72 1014.7
20260508024622 50 251 0.0 0.0 0.00 0.00 0.00 66 1014.7
20260508024120 51 242 0.0 0.0 0.00 0.00 0.00 59 1014.3
20260508023615 51 240 0.0 0.0 0.00 0.00 0.00 56 1014.4
20260508023113 51 239 0.0 0.0 0.00 0.00 0.00 57 1014.6
20260508022609 51 234 0.0 0.0 0.00 0.00 0.00 58 1014.4
20260508022107 51 234 0.0 0.0 0.00 0.00 0.00 56 1014.2
20260508021602 51 234 0.0 0.0 0.00 0.00 0.00 60 1014.4
20260508021058 51 232 0.0 0.0 0.00 0.00 0.00 59 1013.9
20260508020556 52 232 0.0 0.0 0.00 0.00 0.00 58 1014.0
20260508020053 51 240 0.0 0.0 0.00 0.00 0.00 57 1013.9
20260508015551 51 225 0.0 0.0 0.00 0.00 0.00 58 1014.0
20260508015047 52 238 0.0 0.0 0.00 0.00 0.00 57 1013.8
20260508014543 51 238 0.0 0.0 0.00 0.00 0.00 56 1013.9
20260508014040 52 238 0.0 0.0 0.00 0.00 0.00 56 1013.8
20260508013536 52 239 0.0 0.0 0.00 0.00 0.00 54 1013.7
20260508013033 53 233 0.0 0.0 0.00 0.00 0.00 56 1013.7
20260508012531 53 234 0.0 0.0 0.00 0.00 0.00 55 1013.5
20260508012028 53 236 0.0 0.0 0.00 0.00 0.00 54 1013.5
20260508011526 53 225 0.0 0.0 0.00 0.00 0.00 50 1013.5
20260508011023 54 250 0.0 0.0 0.00 0.00 0.00 51 1013.2
20260508010520 55 230 0.0 0.0 0.00 0.00 0.00 50 1013.1
20260508010018 56 244 0.0 1.0 0.00 0.00 0.00 45 1013.1
20260508005514 56 225 2.0 2.0 0.00 0.00 0.00 46 1013.0
20260508005011 55 240 1.0 2.0 0.00 0.00 0.00 46 1013.1
20260508004506 55 215 2.0 2.0 0.00 0.00 0.00 46 1013.0
20260508004003 56 249 1.0 2.0 0.00 0.00 0.00 45 1013.0
20260508003500 56 251 0.0 1.0 0.00 0.00 0.00 45 1013.0
20260508002957 56 238 1.0 1.0 0.00 0.00 0.00 45 1012.7
20260508002453 56 238 0.0 1.0 0.00 0.00 0.00 46 1012.9
20260508001950 57 236 1.0 1.0 0.00 0.00 0.00 45 1012.5
20260508001446 57 230 3.0 3.0 0.00 0.00 0.00 44 1012.5
20260508000943 57 247 1.0 2.0 0.00 0.00 0.00 41 1012.3
20260508000438 58 244 1.0 1.0 0.00 0.00 0.00 45 1012.5
20260507235936 58 239 2.0 2.0 0.00 0.00 0.00 43 1012.4
20260507235433 58 246 2.0 2.0 0.00 0.00 0.00 44 1012.2
20260507234930 58 244 1.0 2.0 0.00 0.00 0.00 45 1012.1
20260507234427 59 247 1.0 1.0 0.00 0.00 0.00 43 1012.1
20260507233923 59 230 1.0 1.0 0.00 0.00 0.00 41 1012.0
20260507233420 59 249 3.0 3.0 0.00 0.00 0.00 40 1012.1
20260507232919 59 249 2.0 2.0 0.00 0.00 0.00 42 1011.9
20260507232415 60 248 1.0 2.0 0.00 0.00 0.00 42 1011.9
20260507231912 60 259 3.0 3.0 0.00 0.00 0.00 43 1012.0
20260507231408 60 190 4.0 6.0 0.00 0.00 0.00 41 1011.8
20260507230905 60 178 1.0 2.0 0.00 0.00 0.00 43 1011.8
20260507230402 61 262 1.0 2.0 0.00 0.00 0.00 42 1011.9
20260507225857 61 278 3.0 3.0 0.00 0.00 0.00 44 1011.4
20260507225353 61 267 0.0 0.0 0.00 0.00 0.00 43 1011.6
20260507224849 61 222 1.0 1.0 0.00 0.00 0.00 43 1011.6
20260507224346 61 228 1.0 2.0 0.00 0.00 0.00 44 1011.7
20260507223842 60 244 2.0 2.0 0.00 0.00 0.00 43 1011.6
20260507223338 60 243 2.0 2.0 0.00 0.00 0.00 43 1011.4
20260507222835 60 249 3.0 3.0 0.00 0.00 0.00 44 1011.5
20260507222332 60 234 0.0 1.0 0.00 0.00 0.00 43 1011.4
20260507221829 61 285 3.0 3.0 0.00 0.00 0.00 44 1011.5
20260507221325 62 249 1.0 1.0 0.00 0.00 0.00 42 1011.3
20260507220821 62 209 4.0 5.0 0.00 0.00 0.00 41 1011.4
20260507220320 62 220 1.0 1.0 0.00 0.00 0.00 44 1011.0
20260507215816 61 293 3.0 3.0 0.00 0.00 0.00 41 1011.1
20260507215313 62 257 4.0 6.0 0.00 0.00 0.00 41 1011.1
20260507214810 62 252 2.0 2.0 0.00 0.00 0.00 42 1011.0
20260507214308 62 242 3.0 5.0 0.00 0.00 0.00 43 1011.0
20260507213802 62 256 2.0 2.0 0.00 0.00 0.00 42 1011.0
20260507213300 62 255 3.0 3.0 0.00 0.00 0.00 40 1010.9
20260507212756 63 221 3.0 5.0 0.00 0.00 0.00 41 1011.3
20260507212252 62 267 3.0 3.0 0.00 0.00 0.00 45 1010.9
20260507211749 62 322 3.0 3.0 0.00 0.00 0.00 42 1010.9
20260507211245 62 254 2.0 2.0 0.00 0.00 0.00 40 1010.5
20260507210743 62 233 1.0 2.0 0.00 0.00 0.00 43 1011.0
20260507210239 62 249 1.0 2.0 0.00 0.00 0.00 46 1010.9
20260507205736 62 222 2.0 2.0 0.00 0.00 0.00 43 1010.8
20260507205233 61 248 1.0 2.0 0.00 0.00 0.00 45 1010.8
20260507204729 61 254 3.0 3.0 0.00 0.00 0.00 44 1010.8
20260507204227 63 233 1.0 2.0 0.00 0.00 0.00 43 1010.7
20260507203725 61 256 1.0 1.0 0.00 0.00 0.00 44 1011.1
20260507203222 61 252 1.0 2.0 0.00 0.00 0.00 45 1010.6
20260507202718 61 257 2.0 2.0 0.00 0.00 0.00 44 1010.9
20260507202214 62 251 3.0 3.0 0.00 0.00 0.00 44 1010.9
20260507201709 61 268 2.0 2.0 0.00 0.00 0.00 46 1011.1
20260507201206 61 251 2.0 2.0 0.00 0.00 0.00 45 1011.0
20260507200702 62 272 3.0 3.0 0.00 0.00 0.00 46 1010.7
20260507200158 62 230 2.0 2.0 0.00 0.00 0.00 44 1011.1
20260507195655 64 244 2.0 2.0 0.00 0.00 0.00 42 1011.0
20260507195152 64 199 3.0 3.0 0.00 0.00 0.00 45 1010.9
20260507194649 62 270 2.0 2.0 0.00 0.00 0.00 43 1011.4
20260507194144 64 251 2.0 2.0 0.00 0.00 0.00 47 1011.5
20260507193641 60 254 2.0 2.0 0.00 0.00 0.00 45 1011.6
20260507193139 61 216 2.0 3.0 0.00 0.00 0.00 46 1011.3
20260507192635 61 267 3.0 3.0 0.00 0.00 0.00 44 1011.8
20260507192132 63 250 3.0 3.0 0.00 0.00 0.00 44 1011.7
20260507191627 64 254 2.0 3.0 0.00 0.00 0.00 47 1011.7
20260507191124 63 250 3.0 3.0 0.00 0.00 0.00 46 1011.4
20260507190622 61 270 2.0 3.0 0.00 0.00 0.00 44 1011.8
20260507190121 60 245 1.0 2.0 0.00 0.00 0.00 48 1011.6
20260507185619 62 288 2.0 2.0 0.00 0.00 0.00 46 1011.4
20260507185115 62 248 1.0 2.0 0.00 0.00 0.00 50 1011.6
20260507184613 61 251 2.0 2.0 0.00 0.00 0.00 46 1011.6
20260507184111 61 250 1.0 2.0 0.00 0.00 0.00 50 1011.7
20260507183607 62 250 3.0 3.0 0.00 0.00 0.00 48 1011.7
20260507183104 64 268 3.0 3.0 0.00 0.00 0.00 44 1011.6
20260507182600 62 261 1.0 2.0 0.00 0.00 0.00 46 1011.5
20260507182055 60 252 1.0 2.0 0.00 0.00 0.00 50 1011.6
20260507181553 60 267 1.0 2.0 0.00 0.00 0.00 48 1011.4
20260507181049 60 262 2.0 2.0 0.00 0.00 0.00 50 1011.8
20260507180545 60 248 2.0 2.0 0.00 0.00 0.00 52 1011.8
20260507180043 60 281 3.0 3.0 0.00 0.00 0.00 50 1011.9
20260507175538 60 250 0.0 1.0 0.00 0.00 0.00 53 1012.0
20260507175037 60 241 1.0 2.0 0.00 0.00 0.00 50 1011.7
20260507174533 61 248 1.0 1.0 0.00 0.00 0.00 49 1012.1
20260507174031 62 248 2.0 3.0 0.00 0.00 0.00 50 1011.9
20260507173528 62 221 3.0 5.0 0.00 0.00 0.00 48 1012.0
20260507173025 61 215 3.0 3.0 0.00 0.00 0.00 48 1012.2
20260507172521 60 250 1.0 1.0 0.00 0.00 0.00 53 1012.1
20260507172018 62 253 2.0 2.0 0.00 0.00 0.00 49 1012.1
20260507171513 62 237 3.0 3.0 0.00 0.00 0.00 48 1012.1
20260507171011 61 258 4.0 5.0 0.00 0.00 0.00 51 1012.1
20260507170507 60 251 5.0 6.0 0.00 0.00 0.00 54 1012.4
20260507170004 59 253 1.0 1.0 0.00 0.00 0.00 49 1012.4
20260507165500 60 248 3.0 3.0 0.00 0.00 0.00 52 1012.8
20260507164956 61 260 3.0 3.0 0.00 0.00 0.00 49 1012.7
20260507164453 62 251 1.0 3.0 0.00 0.00 0.00 48 1012.5
20260507163950 62 247 1.0 2.0 0.00 0.00 0.00 49 1012.6
20260507163447 61 271 2.0 2.0 0.00 0.00 0.00 52 1012.8
20260507162944 59 207 3.0 3.0 0.00 0.00 0.00 51 1012.8
20260507162439 61 250 4.0 5.0 0.00 0.00 0.00 50 1012.6
20260507161937 60 224 1.0 2.0 0.00 0.00 0.00 51 1012.6
20260507161433 60 257 2.0 3.0 0.00 0.00 0.00 54 1012.7
20260507160930 59 248 1.0 1.0 0.00 0.00 0.00 53 1012.9
20260507160426 58 298 2.0 2.0 0.00 0.00 0.00 49 1012.9
20260507155921 57 251 2.0 2.0 0.00 0.00 0.00 57 1012.9
20260507155418 60 248 2.0 3.0 0.00 0.00 0.00 51 1013.0
20260507154915 59 253 2.0 2.0 0.00 0.00 0.00 49 1012.9
20260507154412 59 216 3.0 3.0 0.00 0.00 0.00 54 1013.2
20260507153909 59 251 1.0 1.0 0.00 0.00 0.00 51 1013.2
20260507153405 58 246 1.0 2.0 0.00 0.00 0.00 55 1013.2
20260507152902 59 257 2.0 2.0 0.00 0.00 0.00 57 1013.1
20260507152358 57 214 0.0 0.0 0.00 0.00 0.00 60 1013.3
20260507151854 57 255 0.0 1.0 0.00 0.00 0.00 54 1013.2
20260507151351 58 325 2.0 3.0 0.00 0.00 0.00 53 1013.3
20260507150848 58 253 2.0 2.0 0.00 0.00 0.00 54 1013.4
20260507150345 59 248 1.0 2.0 0.00 0.00 0.00 55 1013.3
20260507145841 58 259 1.0 1.0 0.00 0.00 0.00 54 1013.2
20260507145338 58 244 1.0 2.0 0.00 0.00 0.00 55 1013.5
20260507144834 57 210 1.0 1.0 0.00 0.00 0.00 55 1013.5
20260507144332 57 229 2.0 3.0 0.00 0.00 0.00 56 1013.6
20260507143828 56 250 0.0 1.0 0.00 0.00 0.00 61 1013.7
20260507143325 57 330 2.0 3.0 0.00 0.00 0.00 55 1013.6
20260507142821 56 237 1.0 1.0 0.00 0.00 0.00 63 1013.8
20260507142318 55 249 1.0 2.0 0.00 0.00 0.00 62 1014.1
20260507141815 55 248 1.0 1.0 0.00 0.00 0.00 61 1013.9
20260507141311 55 249 1.0 1.0 0.00 0.00 0.00 60 1013.9
20260507140808 55 235 1.0 1.0 0.00 0.00 0.00 65 1014.2
20260507140305 55 228 1.0 2.0 0.00 0.00 0.00 62 1014.4
20260507135802 55 269 1.0 1.0 0.00 0.00 0.00 61 1014.4
20260507135259 55 234 0.0 0.0 0.00 0.00 0.00 62 1014.7
20260507134756 54 239 1.0 1.0 0.00 0.00 0.00 64 1014.4
20260507134252 54 219 2.0 2.0 0.00 0.00 0.00 61 1014.4
20260507133748 54 249 0.0 0.0 0.00 0.00 0.00 66 1014.4
20260507133245 54 231 2.0 2.0 0.00 0.00 0.00 67 1014.2
20260507132743 54 231 0.0 1.0 0.00 0.00 0.00 70 1014.7
20260507132239 54 242 0.0 1.0 0.00 0.00 0.00 72 1014.7
20260507131736 53 235 1.0 1.0 0.00 0.00 0.00 70 1014.3
20260507131233 53 239 0.0 0.0 0.00 0.00 0.00 76 1014.4
20260507130729 52 254 0.0 1.0 0.00 0.00 0.00 74 1014.6
20260507130227 52 234 0.0 1.0 0.00 0.00 0.00 74 1014.6
20260507125726 52 234 0.0 1.0 0.00 0.00 0.00 76 1014.7
20260507125223 51 238 1.0 2.0 0.00 0.00 0.00 81 1014.7
20260507124720 51 248 0.0 0.0 0.00 0.00 0.00 79 1014.9
20260507124217 51 248 0.0 0.0 0.00 0.00 0.00 88 1014.8
20260507123715 50 269 1.0 1.0 0.00 0.00 0.00 89 1014.3
20260507123212 49 243 0.0 0.0 0.00 0.00 0.00 92 1014.8
20260507122707 49 217 0.0 0.0 0.00 0.00 0.00 93 1014.6
20260507122203 49 241 0.0 0.0 0.00 0.00 0.00 94 1014.8
20260507121659 48 252 0.0 0.0 0.00 0.00 0.00 96 1014.9
20260507121155 48 230 0.0 0.0 0.00 0.00 0.00 97 1014.8
20260507120652 48 236 0.0 0.0 0.00 0.00 0.00 99 1014.8
20260507120148 48 235 0.0 0.0 0.00 0.00 0.00 99 1014.8
20260507115645 48 246 0.0 0.0 0.00 0.00 0.00 99 1014.8
20260507115140 47 244 0.0 0.0 0.00 0.00 0.00 99 1014.6
20260507114636 47 248 0.0 0.0 0.00 0.00 0.00 99 1014.6
20260507114208 47 252 0.0 0.0 0.00 0.00 0.00 99 979.7
20260507114134 47 260 0.0 0.0 0.00 0.00 0.00 99 1014.6
20260507113631 47 248 0.0 0.0 0.00 0.00 0.00 99 1014.2
20260507113128 47 248 0.0 0.0 0.00 0.00 0.00 99 1014.6
20260507112626 47 251 0.0 0.0 0.00 0.00 0.00 99 1014.4
20260507112122 46 252 0.0 0.0 0.00 0.00 0.00 99 1014.1
20260507111620 46 250 0.0 0.0 0.00 0.00 0.00 99 1014.3
20260507111116 46 253 0.0 0.0 0.00 0.00 0.00 99 1014.3
20260507110612 46 252 0.0 0.0 0.00 0.00 0.00 99 1014.1
20260507110109 46 251 0.0 0.0 0.00 0.00 0.00 99 1014.1
20260507105606 46 247 0.0 0.0 0.00 0.00 0.00 99 1014.1
20260507105102 46 251 0.0 0.0 0.00 0.00 0.00 99 1013.9
20260507104600 45 253 0.0 0.0 0.00 0.00 0.00 99 1013.8
20260507104056 45 247 0.0 0.0 0.00 0.00 0.00 99 1014.0
20260507103552 45 248 0.0 0.0 0.00 0.00 0.00 99 1013.8
20260507103049 45 242 0.0 0.0 0.00 0.00 0.00 99 1013.7
20260507102545 45 262 0.0 0.0 0.00 0.00 0.00 99 1013.7
20260507102042 45 247 0.0 0.0 0.00 0.00 0.00 99 1013.6
20260507101537 45 247 0.0 0.0 0.00 0.00 0.00 99 1013.5
20260507101034 45 247 0.0 0.0 0.00 0.00 0.00 99 1013.5
20260507100531 46 247 0.0 0.0 0.00 0.00 0.00 99 1013.6
20260507100029 46 247 0.0 0.0 0.00 0.00 0.00 99 1013.9
20260507095527 46 246 0.0 0.0 0.00 0.00 0.00 99 1013.6
20260507095023 46 239 0.0 0.0 0.00 0.00 0.00 98 1013.4
20260507094519 46 238 0.0 0.0 0.00 0.00 0.00 97 1013.7
20260507094016 47 237 0.0 0.0 0.00 0.00 0.00 97 1013.7
20260507093514 47 240 0.0 0.0 0.00 0.00 0.00 96 1013.5
20260507093013 48 239 0.0 0.0 0.00 0.00 0.00 94 1013.8
20260507092509 48 231 0.0 0.0 0.00 0.00 0.00 94 1013.4
20260507092005 48 242 0.0 0.0 0.00 0.00 0.00 93 1013.6
20260507091502 48 243 0.0 0.0 0.00 0.00 0.00 92 1013.6
20260507090958 49 238 0.0 0.0 0.00 0.00 0.00 92 1013.4
20260507090454 49 242 0.0 0.0 0.00 0.00 0.00 93 1013.4
20260507085950 49 242 0.0 0.0 0.00 0.00 0.00 93 1013.5
20260507085448 50 242 0.0 0.0 0.00 0.00 0.00 95 1013.5
20260507084944 50 238 0.0 0.0 0.00 0.00 0.00 95 1013.4
20260507084441 50 238 0.0 0.0 0.00 0.00 0.00 95 1013.5
20260507083938 50 238 0.0 0.0 0.00 0.00 0.00 94 1013.4
20260507083435 50 238 0.0 0.0 0.00 0.00 0.00 94 1013.5
20260507082931 50 237 0.0 0.0 0.00 0.00 0.00 96 1013.5
20260507082427 50 245 0.0 0.0 0.00 0.00 0.00 96 1013.4
20260507081924 50 246 0.0 0.0 0.00 0.00 0.00 95 1013.6
20260507081420 50 212 0.0 0.0 0.00 0.00 0.00 97 1013.5
20260507080917 51 236 0.0 0.0 0.00 0.00 0.00 97 1013.5
20260507080414 51 237 0.0 0.0 0.00 0.00 0.00 96 1013.5
20260507075909 51 237 0.0 0.0 0.00 0.00 0.00 95 1013.4
20260507075405 51 237 0.0 0.0 0.00 0.00 0.00 94 1013.4
20260507074902 51 237 0.0 0.0 0.00 0.00 0.00 94 1013.5
20260507074359 51 236 0.0 0.0 0.00 0.00 0.00 94 1013.4
20260507073856 51 236 0.0 0.0 0.00 0.00 0.00 94 1013.6
20260507073352 51 236 0.0 0.0 0.00 0.00 0.00 94 1013.5
20260507072850 51 235 0.0 1.0 0.00 0.00 0.00 94 1013.4
20260507072347 51 235 0.0 0.0 0.00 0.00 0.00 96 1013.5
20260507071844 51 237 0.0 0.0 0.00 0.00 0.00 96 1013.2
20260507071342 51 232 0.0 1.0 0.00 0.00 0.00 96 1013.6
20260507070837 51 232 0.0 0.0 0.00 0.00 0.00 95 1013.4
20260507070335 51 233 0.0 0.0 0.00 0.00 0.00 94 1013.2
20260507065832 51 237 0.0 0.0 0.00 0.00 0.00 95 1013.2
20260507065328 51 237 0.0 0.0 0.00 0.00 0.00 95 1013.2
20260507064826 51 238 0.0 0.0 0.00 0.00 0.00 96 1013.4
20260507064324 51 238 0.0 0.0 0.00 0.00 0.00 94 1013.3
20260507063822 51 238 0.0 0.0 0.00 0.00 0.00 94 1013.4
20260507063318 51 237 0.0 0.0 0.00 0.00 0.00 94 1013.2
20260507062815 51 239 0.0 0.0 0.00 0.00 0.00 95 1013.2
20260507062312 52 240 0.0 0.0 0.00 0.00 0.00 97 1013.2
20260507061810 51 235 0.0 0.0 0.00 0.00 0.00 96 1013.5
20260507061308 51 235 0.0 0.0 0.00 0.00 0.00 95 1013.2
20260507060806 52 235 0.0 0.0 0.00 0.00 0.00 95 1013.4
20260507060302 52 234 0.0 0.0 0.00 0.00 0.00 95 1013.6
20260507055759 52 236 0.0 0.0 0.00 0.00 0.00 94 1013.4
20260507055254 52 236 0.0 0.0 0.00 0.00 0.00 94 1013.6
20260507054751 52 236 0.0 0.0 0.00 0.00 0.00 93 1013.4
20260507054247 52 236 0.0 0.0 0.00 0.00 0.00 93 1013.4
20260507053745 52 230 0.0 0.0 0.00 0.00 0.00 93 1013.5
20260507053242 52 236 0.0 0.0 0.00 0.00 0.00 94 1013.2
20260507052741 52 237 0.0 0.0 0.00 0.00 0.00 94 1013.5
20260507052237 52 239 0.0 0.0 0.00 0.00 0.00 95 1013.6
20260507051735 52 237 0.0 0.0 0.00 0.00 0.00 95 1013.8
20260507051232 52 240 0.0 0.0 0.00 0.00 0.00 96 1014.0
20260507050728 52 244 0.0 0.0 0.00 0.00 0.00 97 1013.8
20260507050226 51 238 0.0 0.0 0.00 0.00 0.00 99 1013.9
20260507045722 51 236 1.0 1.0 0.00 0.62 0.62 99 1014.1
20260507045218 52 236 1.0 1.0 0.00 0.62 0.62 99 1013.9
20260507044716 52 228 0.0 0.0 0.00 0.62 0.62 99 1013.7
20260507044212 52 255 0.0 0.0 0.00 0.62 0.62 99 1013.8
20260507043708 52 250 0.0 0.0 0.00 0.62 0.62 99 1013.6
20260507043205 52 256 0.0 0.0 0.00 0.62 0.62 99 1013.9
20260507042702 52 252 0.0 0.0 0.00 0.62 0.62 99 1013.9
20260507042156 52 252 0.0 0.0 0.00 0.62 0.62 99 1013.5
20260507041654 52 252 0.0 0.0 0.00 0.62 0.62 99 1013.6
20260507041150 52 252 0.0 0.0 0.00 0.62 0.62 99 1013.6
20260507040909 53 255 0.0 0.0 0.00 0.00 0.62 99 979.0
20260507040648 53 301 0.0 0.0 0.00 0.62 0.62 99 1013.8
20260507040409 53 247 0.0 0.0 0.00 0.00 0.62 99 979.0
20260507040144 53 247 0.0 0.0 0.00 0.62 0.62 99 1013.7
20260507035909 53 280 0.0 0.0 0.00 0.00 0.62 99 978.7
20260507035640 53 248 0.0 0.0 0.00 0.62 0.62 99 1013.7
20260507035136 52 233 0.0 0.0 0.00 0.62 0.62 99 1013.7
20260507034909 52 248 0.0 0.0 0.00 0.00 0.62 99 978.7
20260507034633 52 249 0.0 0.0 0.00 0.62 0.62 99 1013.4
20260507034131 52 251 0.0 0.0 0.00 0.62 0.62 99 1013.3